Theta_e
352 352 353 354 354 354 353 354 353 352 352 352 352 351 351 351 352 351 351 351 351 351 350 349 349 349 348 347 347 346 347 349 347 348 348 349 349 349 350 350 349 350 349 349 351 350 350 349 349 349 349 348 349 349 349 350 348 347 347 347 347 347 346 347 345 345 345 344 345 345 344 343 344 346 347 347 347 347 345 345 344 342 343 344 344
350 354 354 354 354 353 353 352 352 352 351 351 351 351 350 351 350 350 350 350 350 350 349 349 349 348 347 347 346 346 348 347 348 349 350 350 350 349 349 349 350 350 349 350 350 350 349 350 350 350 349 349 350 348 349 348 348 347 346 347 347 347 346 345 345 345 345 345 345 343 345 344 345 345 347 347 346 346 344 344 344 342 343 344 343
353 354 354 354 353 353 353 352 352 351 351 351 351 350 350 350 350 350 350 349 349 349 348 349 348 348 347 346 346 346 346 345 346 348 350 351 350 350 350 349 349 350 350 350 350 349 351 351 349 349 349 350 350 349 348 347 347 347 347 346 346 346 346 344 343 344 343 343 344 344 344 345 345 345 346 345 345 344 342 341 341 341 341 341 340
352 353 354 354 353 353 352 352 351 351 351 350 350 349 349 350 350 349 349 349 349 349 348 348 348 347 347 346 346 346 345 345 345 346 348 349 348 348 348 349 349 350 350 350 349 350 350 350 349 349 350 349 348 347 347 347 347 346 346 347 346 346 345 345 344 343 343 345 345 344 344 344 343 344 345 344 343 342 341 341 341 341 340 340 338
352 354 354 353 353 352 351 351 351 350 350 349 349 349 348 349 349 349 348 349 348 348 348 348 347 347 346 346 346 346 345 345 345 346 347 349 350 349 348 348 348 350 351 350 349 349 349 349 349 348 348 348 347 347 347 347 347 346 346 346 346 345 345 344 344 343 343 343 342 343 342 341 342 343 344 344 341 340 340 340 339 341 339 337 336
352 353 353 353 352 352 351 351 350 350 350 349 349 348 349 349 348 348 348 348 348 348 347 347 347 347 346 346 346 346 345 345 345 345 347 348 349 348 348 348 349 350 351 351 350 349 349 348 348 348 348 348 348 348 347 347 347 346 346 345 344 343 342 342 342 342 342 342 341 341 339 339 337 338 341 341 340 340 340 339 341 341 341 338 337
353 354 353 352 352 352 352 351 351 350 350 349 349 348 349 348 348 348 348 348 348 348 347 347 347 346 346 346 346 345 345 345 345 345 346 348 349 349 348 348 348 349 349 349 349 349 349 348 347 347 347 347 348 347 347 347 346 346 345 344 343 342 341 341 341 340 340 340 340 339 338 337 338 338 340 340 342 343 342 342 340 339 340 342 340
354 353 353 351 351 352 352 351 351 351 350 349 349 348 348 348 348 348 348 348 347 347 347 347 347 346 346 346 346 345 345 344 344 344 345 348 348 349 348 347 347 348 347 349 348 348 348 347 346 347 348 349 348 348 347 346 346 345 344 342 341 341 341 340 340 340 337 336 337 338 337 335 337 337 341 339 339 340 340 339 338 339 340 340 338
351 352 352 352 352 351 351 351 350 350 350 350 349 348 348 348 348 348 348 348 347 347 347 347 347 346 346 346 346 345 344 343 343 344 344 346 349 349 349 348 348 347 347 348 347 346 346 344 345 347 348 348 347 347 347 346 346 345 344 342 341 341 340 340 339 336 336 335 335 334 334 334 334 334 335 336 339 338 336 336 337 338 337 336 335
352 352 352 351 351 352 351 351 350 350 350 349 348 348 348 348 348 348 348 348 347 347 347 347 346 347 347 346 346 346 346 346 344 344 344 346 348 348 348 348 347 346 346 346 347 346 345 343 345 348 348 347 347 347 346 345 345 344 342 342 341 340 340 340 338 338 337 336 336 338 339 340 337 336 337 337 336 337 343 342 339 338 338 338 337
352 352 352 353 352 351 351 351 351 351 350 349 348 348 348 348 348 347 347 348 347 347 347 347 347 347 347 347 347 347 347 347 347 347 347 347 347 347 347 347 347 347 347 347 347 346 344 344 346 347 347 347 346 346 345 345 344 344 342 341 340 339 339 337 336 335 336 334 335 334 334 337 335 336 339 339 339 342 341 342 342 342 341 341 342
351 352 353 353 354 351 351 351 351 350 349 349 349 349 349 348 348 348 348 348 348 348 348 347 347 347 346 347 347 349 350 350 350 349 348 348 348 348 348 347 347 347 346 346 347 345 344 345 346 346 346 346 346 345 344 344 344 342 341 340 339 339 338 336 335 336 335 334 334 335 335 335 338 340 343 343 343 343 342 342 342 341 341 342 341
350 351 353 354 352 351 351 351 351 350 350 350 349 349 349 349 348 348 348 349 349 348 349 348 348 348 348 347 349 350 349 349 348 348 348 348 349 348 347 347 347 347 347 347 346 345 345 345 346 346 345 346 346 345 344 343 342 341 340 339 339 338 338 336 335 335 335 336 335 335 335 337 340 342 343 343 342 341 341 341 340 340 340 340 340
350 352 352 353 353 353 351 350 350 351 350 350 349 349 349 349 349 349 349 349 349 349 349 349 349 348 348 348 349 350 349 348 348 349 349 348 349 348 346 347 347 347 347 346 346 345 346 346 346 346 346 345 345 344 343 343 341 340 340 339 338 337 337 337 336 334 334 334 335 336 337 338 338 339 339 339 340 340 339 339 339 338 338 338 339
350 351 353 352 352 354 353 351 351 350 349 350 349 349 349 349 349 349 349 349 349 349 349 349 349 349 349 349 349 348 348 348 349 349 349 348 348 348 347 346 346 347 346 346 346 345 345 347 347 347 345 344 344 343 342 342 341 340 340 338 338 336 335 335 334 335 334 333 335 333 335 336 338 338 338 337 337 337 337 337 337 337 337 337 337
352 351 351 352 352 354 352 353 351 350 349 350 350 349 349 349 349 349 349 349 349 349 349 349 349 349 349 349 349 348 348 349 350 349 349 349 349 348 348 346 346 346 346 346 345 345 346 347 347 347 345 344 344 343 342 341 340 340 338 338 337 337 335 335 335 335 334 335 336 337 335 337 339 337 336 337 337 336 337 336 336 335 335 335 335
351 352 350 350 352 353 352 351 351 350 350 350 350 350 349 349 349 349 349 349 350 349 349 349 350 350 349 348 348 348 348 350 350 350 349 349 348 347 347 346 346 346 346 346 345 346 347 347 347 347 346 344 344 343 342 341 340 339 338 338 337 337 336 336 335 335 335 335 335 335 336 336 337 337 336 336 335 335 336 335 335 335 335 334 334
350 350 350 350 350 352 352 352 352 352 353 351 350 350 350 349 349 349 349 349 350 349 349 349 349 350 349 348 348 348 349 350 350 350 349 348 347 347 346 346 346 346 346 345 345 346 346 348 347 347 346 344 344 343 342 341 339 338 338 337 337 336 336 336 336 335 336 336 334 335 335 336 336 336 336 336 336 336 335 335 334 334 333 333 332
350 350 350 350 349 350 352 352 352 352 351 351 350 350 350 350 349 349 349 349 349 349 349 349 349 349 349 348 348 348 350 351 350 350 349 348 347 346 346 345 345 346 346 345 345 346 346 347 348 347 345 344 343 342 341 340 339 338 337 337 337 337 336 336 336 335 335 336 335 336 336 338 338 336 336 335 335 335 334 334 334 334 334 333 333
349 350 349 349 350 350 351 351 350 351 351 351 350 351 351 350 350 350 349 349 350 350 349 349 349 349 348 347 347 350 349 351 350 350 349 348 346 346 346 346 345 346 346 345 345 345 346 347 347 346 345 344 343 342 341 340 339 338 337 337 337 336 337 336 335 335 335 335 337 336 336 336 337 335 335 334 335 334 334 333 332 332 331 332 332
348 349 349 348 349 350 351 349 350 351 351 351 350 350 350 350 350 350 350 350 350 350 349 348 348 349 349 348 348 350 351 350 350 350 349 350 347 346 346 346 346 345 346 345 344 345 345 345 346 344 344 344 342 342 341 340 339 338 338 337 336 337 338 337 337 337 336 335 336 334 338 338 335 334 334 334 333 332 332 332 333 333 333 332 332
343 345 347 349 349 349 349 349 349 351 350 349 350 350 350 350 350 349 349 349 350 350 351 350 350 349 349 349 350 352 350 350 350 349 350 349 347 346 346 346 345 345 346 345 344 344 344 344 344 343 342 342 342 340 341 340 340 339 337 336 336 337 338 337 337 336 336 336 336 334 334 334 333 333 333 333 333 333 332 332 332 332 332 332 331
340 343 345 348 348 348 348 349 348 349 349 349 349 350 349 350 349 349 348 349 350 350 349 349 349 348 349 348 352 352 351 351 351 349 349 348 348 347 345 346 346 346 345 344 345 345 345 345 343 343 343 343 342 342 341 341 340 338 337 336 337 336 337 337 337 337 336 336 336 335 334 334 334 334 334 333 333 333 332 332 333 332 331 331 331
340 341 342 346 348 347 348 349 348 349 348 347 348 348 348 349 348 348 348 349 349 348 348 348 348 349 347 349 350 351 352 353 347 348 349 349 348 346 345 345 345 345 345 344 345 345 344 344 344 343 342 342 344 343 342 341 338 337 337 337 336 336 336 337 335 337 337 335 334 334 334 334 333 334 334 334 334 333 332 332 332 331 331 331 330
340 342 344 344 346 348 348 348 349 349 349 348 348 346 347 346 347 347 347 347 347 348 348 348 348 348 348 349 348 351 351 351 349 349 350 347 347 347 347 346 346 345 344 343 343 344 344 343 344 342 343 342 341 343 341 338 336 334 336 337 336 337 336 337 336 336 336 337 336 333 333 334 334 333 332 331 332 332 332 332 331 331 330 329 329
341 340 342 344 346 348 349 349 348 348 348 347 348 347 347 345 345 346 346 347 347 347 348 348 348 348 348 348 348 350 351 349 349 350 350 347 345 345 345 345 344 343 343 341 341 343 344 343 342 342 343 343 342 342 340 337 335 334 335 337 337 337 336 335 336 337 337 337 336 334 335 333 334 334 333 333 333 332 332 332 331 330 330 330 329
338 340 342 345 346 347 348 348 347 348 347 348 349 348 347 347 346 346 345 346 347 346 347 349 348 350 350 350 348 348 348 349 348 348 348 348 345 344 343 344 342 341 342 340 340 342 343 343 343 343 343 342 340 339 338 336 335 334 335 335 336 336 336 335 336 336 337 336 336 334 335 334 333 333 333 333 334 333 333 332 332 331 330 330 330
338 339 342 345 345 346 348 347 347 346 346 347 347 347 348 346 346 346 345 346 345 346 348 348 348 350 349 350 349 347 347 347 347 346 347 348 345 344 344 343 342 341 341 340 338 340 342 342 340 339 340 341 338 337 336 336 335 336 335 336 336 337 337 336 337 336 336 337 335 335 334 335 332 332 332 332 332 333 333 333 332 332 332 331 331
336 339 341 343 345 346 347 345 346 345 346 347 345 347 347 347 346 345 344 346 346 345 347 347 347 348 349 349 348 347 346 345 345 345 347 347 346 343 343 342 342 340 340 339 339 340 342 341 339 337 339 339 338 337 335 335 336 336 335 334 336 337 338 337 336 335 336 336 336 334 332 332 333 335 333 334 334 334 334 333 333 333 333 332 332
336 338 340 342 343 346 345 345 346 345 346 346 345 345 345 345 345 345 346 348 346 346 345 346 346 346 345 345 347 347 346 345 345 346 345 345 344 342 342 343 341 341 341 340 340 340 341 341 339 337 336 338 337 336 334 333 332 334 334 335 338 337 337 336 336 335 336 336 337 335 333 334 334 338 338 336 337 336 335 335 335 334 334 333 331
337 337 338 341 343 343 343 345 346 346 346 345 345 344 345 345 345 346 348 345 345 345 345 345 345 345 344 345 345 345 344 345 344 344 343 343 342 341 341 342 340 340 341 340 342 341 341 341 341 338 337 337 337 337 334 333 333 333 336 336 336 337 336 337 337 336 335 335 335 337 335 336 338 341 341 339 338 338 336 335 335 335 334 333 332
336 336 338 340 342 341 343 344 345 345 345 344 344 343 343 344 344 345 345 345 346 344 344 345 344 344 345 344 345 344 343 343 344 343 342 342 341 340 341 341 340 341 341 341 340 340 339 340 341 342 340 339 337 336 338 336 334 334 337 336 337 336 336 336 337 337 336 336 334 336 336 335 340 341 341 340 339 338 337 336 335 334 334 334 333
338 339 338 338 339 341 341 342 344 344 343 343 343 343 344 343 343 343 344 344 345 345 344 344 344 345 345 344 344 344 344 343 343 343 341 341 342 340 341 341 342 342 341 341 341 340 339 339 341 342 339 336 335 334 335 335 335 336 337 336 337 336 337 336 337 336 335 336 335 334 336 337 339 340 340 339 338 337 337 336 334 336 334 334 334
337 338 339 338 340 341 342 342 342 342 343 344 343 342 342 343 343 344 344 345 345 345 345 344 345 345 345 345 343 343 343 345 343 342 341 341 342 340 340 340 342 344 343 341 339 339 337 337 339 340 337 334 333 333 333 333 335 336 336 337 337 337 337 336 336 337 336 336 336 336 336 337 337 339 339 338 338 337 337 336 336 335 333 335 335
337 337 337 339 340 340 340 339 340 341 341 341 342 342 342 341 342 343 344 344 344 343 344 344 344 344 344 344 343 342 342 342 343 342 341 341 340 340 340 341 342 342 341 340 339 339 337 336 337 337 337 337 336 334 334 333 333 334 335 337 337 337 337 336 337 336 335 337 337 337 337 337 338 338 338 339 338 337 337 336 335 335 335 334 334
336 337 338 338 337 339 341 339 339 339 340 340 341 342 341 342 342 342 344 343 342 342 343 343 344 344 343 343 342 342 342 343 342 342 341 340 340 340 340 342 341 341 341 341 340 337 338 337 339 338 335 335 335 333 333 333 335 334 335 337 337 337 337 337 337 337 336 337 335 336 337 337 338 337 337 339 341 339 336 336 336 336 335 335 334
337 336 336 337 337 338 338 337 337 338 338 339 340 341 341 341 342 343 342 342 342 341 343 343 342 343 344 342 342 342 341 341 341 341 340 338 339 340 339 339 340 340 341 341 339 338 339 338 340 339 340 335 335 333 332 333 333 334 335 335 336 338 336 338 337 336 336 335 335 335 336 337 338 337 340 340 341 340 335 333 334 335 336 335 335
336 337 337 336 335 336 337 337 337 338 339 338 339 339 340 341 341 341 341 341 341 341 341 342 341 341 342 342 342 342 341 340 338 338 337 338 339 335 336 337 340 340 338 338 339 340 341 340 337 336 337 336 334 333 332 332 332 332 334 334 335 337 335 337 337 337 335 333 334 335 335 337 337 337 337 338 338 337 338 335 332 334 336 337 337
336 336 336 337 337 336 337 336 336 337 338 339 340 340 339 339 339 339 339 339 339 341 342 340 340 340 340 341 341 342 339 337 335 335 335 337 337 336 336 335 338 340 338 336 336 336 337 340 337 334 335 335 334 334 332 332 331 331 332 333 334 336 334 334 337 338 336 335 334 334 335 336 337 337 337 336 336 335 336 337 336 337 337 335 336
335 335 336 335 335 334 335 334 335 336 338 339 339 338 337 336 336 337 337 336 336 337 338 337 338 339 341 341 341 340 340 338 336 336 336 337 337 336 333 335 337 337 335 333 333 333 333 335 336 334 333 333 334 332 332 332 331 331 330 331 332 332 332 334 336 337 335 334 334 335 336 337 338 336 335 335 335 335 335 335 336 335 336 336 335
333 333 333 334 334 333 333 331 333 335 335 336 336 336 335 334 335 334 334 334 334 335 335 336 337 338 339 340 339 337 338 338 338 338 337 337 336 336 334 335 336 334 333 333 334 333 335 336 334 335 333 330 329 332 332 333 329 326 328 328 328 331 332 334 334 334 334 337 336 334 335 336 336 336 335 333 333 335 335 335 336 336 336 337 337
331 332 331 333 334 333 332 331 333 333 334 335 336 336 336 335 335 334 334 334 333 332 333 335 335 334 335 337 334 333 336 337 337 336 335 337 337 336 334 334 333 333 332 333 332 332 331 331 331 329 330 328 326 330 332 331 325 324 322 321 323 326 327 329 332 332 333 336 335 333 333 335 333 334 333 333 335 335 334 335 336 336 336 337 337
332 332 334 333 334 334 334 333 333 333 333 333 334 334 336 337 336 335 335 335 338 338 337 336 335 335 335 337 337 335 334 334 335 335 334 335 337 336 333 332 333 332 330 329 330 330 331 330 332 330 325 330 327 329 332 333 327 328 328 325 319 318 322 326 331 332 333 332 334 333 332 336 333 332 333 334 334 336 334 334 335 336 337 337 337
332 332 333 334 334 335 335 333 333 334 334 336 335 336 336 338 338 337 337 337 334 335 337 336 335 333 333 336 338 337 336 335 334 334 334 335 337 334 333 334 334 334 330 328 330 330 330 330 330 330 328 323 325 327 331 332 332 327 321 321 321 321 317 319 322 326 330 331 332 333 332 334 333 331 333 331 333 334 333 334 335 337 337 338 337
329 330 331 333 334 335 336 336 335 335 336 337 337 337 337 335 335 335 337 335 336 334 332 332 333 333 332 332 334 336 336 335 334 334 333 334 335 334 332 333 333 333 331 331 331 332 332 332 331 329 328 327 326 327 329 331 333 334 329 323 320 318 319 321 322 322 327 327 329 329 330 331 332 331 332 332 333 334 332 332 335 336 336 336 336
327 329 331 331 333 333 335 336 338 337 337 338 339 338 337 334 333 332 330 330 329 325 325 326 328 331 333 333 334 334 334 334 334 333 333 334 335 334 332 331 331 331 331 330 331 332 331 331 331 331 329 330 328 325 326 330 331 331 332 334 328 321 320 322 321 316 326 329 328 328 329 331 334 331 332 332 331 331 332 333 335 335 335 336 335
326 329 329 329 331 331 332 333 334 336 337 338 339 338 337 336 335 335 334 333 332 329 331 332 331 333 337 334 333 334 334 334 334 333 333 334 334 333 333 333 331 331 332 332 330 329 329 331 332 329 327 328 328 324 325 327 329 330 330 331 330 328 329 323 319 322 317 323 326 327 328 329 330 332 330 331 331 331 331 331 333 333 334 335 334
324 326 327 327 328 328 329 331 332 333 333 334 334 335 334 334 334 334 335 334 332 332 332 333 333 333 333 334 335 335 335 336 335 334 334 333 332 332 332 332 332 332 333 332 331 331 331 332 333 331 330 330 330 327 326 327 324 325 329 328 329 330 331 331 328 323 321 318 318 325 327 328 329 331 331 330 331 331 331 332 331 331 334 332 334
320 323 324 325 327 328 329 329 330 330 330 331 333 334 333 332 332 331 330 332 332 331 333 332 330 331 331 334 333 333 334 336 336 335 334 332 332 332 333 333 333 333 333 333 335 332 332 332 332 332 329 329 330 331 330 328 328 327 326 326 328 330 331 331 330 330 324 320 318 318 320 325 328 329 329 330 331 331 331 331 330 331 333 333 333
318 320 321 323 325 327 328 328 328 329 330 331 333 334 335 333 331 330 329 329 330 330 330 330 330 332 331 333 334 333 332 333 335 336 334 332 332 332 333 333 333 334 334 333 331 331 332 332 333 332 332 329 330 330 330 330 330 330 330 329 328 328 328 326 326 326 326 325 320 319 321 320 320 325 329 329 330 331 331 332 332 330 331 331 331
315 316 317 318 319 322 324 326 328 329 331 332 333 332 333 334 333 333 331 330 330 330 328 328 329 329 329 331 332 332 333 333 335 334 334 333 331 332 333 333 335 335 334 334 331 331 331 333 334 332 331 330 329 331 330 331 332 331 330 329 329 328 325 324 325 326 326 325 323 321 322 323 323 322 326 329 329 330 331 332 330 330 331 331 330
Wind_Speed
13 16 14 16 14 15 16 16 17 17 16 16 16 17 18 19 19 20 20 20 20 20 19 19 19 18 17 17 17 17 17 16 16 16 18 17 17 17 17 17 17 17 16 18 19 19 19 19 20 18 16 17 18 18 17 17 17 17 17 17 17 17 16 17 16 17 17 17 15 15 13 12 13 14 16 18 18 16 15 13 12 13 12 14 17
16 15 13 15 15 15 16 17 17 18 17 16 16 16 17 17 18 19 20 19 19 19 19 19 19 18 18 17 17 15 13 15 14 15 17 19 18 18 18 18 18 17 17 19 20 20 20 19 19 18 18 19 18 19 18 18 18 17 18 17 17 17 17 16 15 16 16 16 16 14 14 13 15 14 16 18 18 17 16 15 13 12 12 17 18
15 15 13 16 17 16 16 17 18 18 17 17 17 17 17 17 16 17 17 18 18 19 20 19 18 18 17 17 16 15 16 16 14 13 16 20 19 18 18 18 19 18 18 20 20 20 21 20 19 19 19 19 19 18 18 18 18 17 17 17 17 17 17 16 15 16 14 14 16 17 15 16 16 16 18 18 17 17 16 15 14 14 12 16 15
16 14 13 16 18 16 17 18 18 18 18 17 17 17 16 16 16 16 17 17 18 19 19 18 18 18 17 16 16 16 17 16 15 13 15 18 18 19 19 18 18 19 19 20 20 21 21 20 19 19 19 18 19 18 17 17 18 17 17 17 17 17 17 17 16 15 14 14 13 12 10 11 13 17 17 17 17 16 16 16 17 16 16 15 16
15 14 14 14 15 16 17 18 18 18 18 18 17 17 16 16 16 16 17 18 18 18 19 18 18 17 17 17 16 16 16 16 16 15 14 15 17 19 19 18 19 19 18 19 20 20 20 20 19 18 17 17 17 17 17 16 17 16 16 17 17 16 16 15 14 14 14 13 10 10 9 10 11 16 17 16 15 16 16 16 17 16 16 15 15
14 13 13 13 14 15 17 17 18 19 18 18 18 17 17 16 16 16 17 18 17 17 17 18 18 17 17 16 16 15 16 16 15 15 13 13 16 18 18 18 18 19 19 18 18 18 18 18 17 16 16 15 15 16 16 16 16 16 16 16 16 16 15 15 14 13 13 12 10 8 8 9 9 10 15 15 15 15 16 17 17 16 15 15 16
15 13 13 12 12 15 17 17 18 18 18 18 18 17 17 16 16 16 16 16 17 17 17 17 17 16 16 16 15 15 16 15 15 15 12 11 14 17 18 18 18 18 19 18 18 18 17 17 16 15 15 14 15 16 17 17 16 16 15 15 15 15 15 14 13 12 10 8 7 8 7 9 10 9 14 15 16 17 17 17 16 15 16 16 15
12 11 12 11 12 15 16 16 18 18 18 18 17 17 17 17 16 16 16 16 17 16 16 16 16 16 16 15 15 14 14 14 15 14 11 11 11 14 15 17 17 17 17 17 16 16 16 14 14 14 13 13 13 14 15 16 16 15 15 15 15 15 14 13 13 11 10 9 8 8 8 10 11 10 13 14 14 16 16 16 14 15 15 13 12
11 12 12 12 13 19 15 16 17 18 18 18 17 17 16 16 15 16 16 15 15 16 16 16 16 16 16 15 15 14 14 14 14 12 11 11 10 13 14 15 15 16 15 15 15 15 14 13 13 13 13 13 13 14 16 16 15 15 15 15 15 14 13 12 11 11 8 8 9 9 10 9 10 10 12 13 15 14 13 14 15 14 14 13 13
12 12 12 11 13 18 16 15 16 18 18 18 18 17 17 16 16 16 15 15 15 16 16 16 16 16 16 16 15 15 15 14 14 13 11 12 13 14 13 13 14 15 15 16 15 15 13 13 13 12 13 13 13 14 16 15 15 15 15 15 14 14 13 12 12 10 10 10 12 11 10 11 10 11 13 14 14 15 15 15 13 13 13 14 16
13 12 11 11 16 15 15 15 16 18 18 18 18 17 17 16 16 16 15 15 15 15 15 15 16 15 15 15 14 14 15 15 15 15 13 12 14 14 14 14 14 15 15 14 14 14 14 13 12 12 13 14 14 16 16 15 15 15 15 15 14 13 11 10 9 9 9 11 11 11 9 9 10 10 14 16 16 16 15 15 15 14 14 15 15
12 11 11 11 17 14 14 15 16 17 18 18 18 18 17 16 15 15 15 15 13 14 14 14 14 14 14 14 14 14 13 13 15 15 16 15 14 14 14 14 14 14 14 14 14 14 14 13 13 13 13 14 14 15 16 15 14 15 15 15 14 12 10 10 9 9 10 11 10 9 11 12 11 12 16 15 15 16 16 16 16 16 17 17 16
13 12 11 12 15 15 14 14 16 17 17 18 17 18 17 17 16 15 14 13 12 13 12 13 12 11 12 12 14 15 14 14 14 14 14 14 13 13 13 13 13 14 14 14 14 14 15 14 13 13 13 14 14 15 15 14 14 15 15 15 14 13 11 11 10 10 10 10 9 11 11 11 12 16 15 16 15 15 15 15 15 15 15 15 15
13 12 12 13 11 17 14 14 15 16 17 17 17 16 16 16 15 13 12 12 12 12 11 12 12 11 10 10 10 12 12 12 13 13 14 14 13 12 12 12 13 13 14 14 14 15 15 14 14 13 14 14 14 14 15 15 15 15 15 15 14 13 13 10 11 10 10 10 10 11 10 9 10 12 13 13 13 13 14 14 14 14 14 14 14
13 14 13 12 13 14 17 13 13 14 14 14 14 14 14 14 13 13 12 12 12 11 11 11 12 12 10 9 11 11 11 12 13 14 14 13 13 13 12 12 13 13 13 13 14 15 14 14 13 13 14 14 14 14 14 14 15 15 14 14 13 12 10 9 8 9 9 9 9 9 10 9 11 11 12 13 13 13 13 13 13 13 13 13 13
12 12 12 11 12 12 13 14 13 13 14 14 14 14 13 13 13 13 13 12 12 12 11 11 11 12 11 10 11 11 11 12 13 13 12 12 11 12 12 12 13 13 12 13 13 14 13 13 13 14 14 14 14 14 14 14 15 14 14 13 13 12 10 8 8 8 8 9 8 9 9 9 9 10 11 13 13 13 12 12 11 11 11 11 11
12 12 11 11 12 12 11 12 14 15 13 13 13 13 13 13 13 13 13 13 12 12 11 11 11 11 11 11 10 10 12 12 12 12 11 10 10 11 11 11 12 12 12 12 13 12 12 12 12 14 14 14 13 14 14 14 14 15 14 14 13 12 10 8 8 8 8 9 8 7 8 8 10 11 12 12 12 12 12 12 12 12 12 12 12
12 12 12 12 12 11 11 12 15 14 13 13 13 13 13 13 13 13 13 12 12 12 12 11 11 11 11 12 11 11 12 12 11 12 11 10 10 9 10 11 11 11 11 12 12 11 11 10 11 14 15 14 14 14 14 13 14 14 14 14 13 12 11 9 9 8 9 8 8 7 7 10 11 11 12 12 12 12 12 12 12 11 12 12 12
10 10 11 11 11 11 11 11 12 12 14 11 11 12 12 13 12 13 13 12 12 12 12 11 12 12 12 12 12 12 14 14 13 11 11 10 9 9 9 10 10 10 10 11 11 10 11 11 11 13 15 14 14 14 14 13 13 14 14 14 14 12 11 8 8 9 9 7 7 7 8 8 10 11 11 11 12 11 11 11 12 12 12 12 12
8 9 9 10 10 11 10 10 10 11 10 10 11 12 14 13 13 13 13 12 12 12 12 13 13 12 13 14 13 12 13 13 14 11 11 10 8 7 9 10 10 10 9 10 10 10 11 12 13 12 14 14 15 14 14 13 14 14 14 13 12 12 7 6 9 8 7 7 7 7 9 9 10 11 10 10 11 11 11 11 11 11 10 12 11
6 8 8 8 10 10 12 10 11 12 11 11 10 11 13 17 15 13 14 13 13 14 14 15 15 13 12 12 10 10 10 10 11 10 11 8 8 8 8 10 10 10 10 9 10 10 11 13 14 13 13 14 14 15 14 13 13 13 13 12 11 6 6 7 7 6 6 7 7 8 8 7 9 11 10 10 10 10 10 11 12 12 12 11 11
8 7 7 8 8 8 10 11 11 12 11 9 8 8 10 13 12 13 12 13 14 14 14 12 12 11 12 11 8 6 8 8 9 10 7 9 8 8 8 9 10 10 10 9 9 10 11 13 14 14 14 14 16 9 10 12 13 12 12 11 7 6 6 7 6 6 6 6 6 8 9 10 9 9 9 10 9 9 10 10 11 11 11 11 11
9 8 7 8 7 7 9 10 11 11 12 10 8 8 11 10 11 11 10 12 13 12 10 11 10 10 10 9 6 5 7 7 7 7 7 9 9 9 8 9 10 11 10 10 9 9 9 11 14 15 13 12 8 6 7 7 8 12 11 6 5 5 6 7 6 6 5 5 6 10 9 8 9 10 10 10 10 10 9 10 10 10 11 11 11
10 9 9 9 9 9 10 11 12 12 11 9 9 9 9 8 8 9 9 9 9 9 9 9 9 9 9 7 7 5 6 4 8 8 8 8 8 9 8 8 10 10 11 9 9 8 10 10 11 13 11 8 6 6 6 6 7 6 6 5 5 6 6 6 5 5 5 6 7 9 8 7 9 9 9 9 10 10 9 9 9 10 10 10 10
8 8 8 10 11 9 9 11 11 11 11 9 9 9 9 9 9 8 8 7 8 8 7 8 8 9 8 6 7 6 6 5 7 5 5 6 7 7 6 6 6 7 6 6 6 6 6 8 8 8 6 6 6 6 6 6 6 6 6 5 6 6 5 5 4 5 5 5 7 8 8 8 8 8 8 7 7 8 8 9 9 9 9 9 10
7 7 8 9 10 10 10 10 11 11 10 8 8 8 9 8 8 8 8 8 7 8 7 7 7 8 7 7 7 6 5 6 6 6 5 5 6 6 6 5 6 6 5 6 5 3 4 6 6 6 5 6 6 5 5 6 6 6 6 5 6 5 5 5 4 4 5 5 7 7 7 7 6 6 7 8 8 8 9 9 9 8 8 9 9
7 8 8 8 9 9 11 11 10 9 10 8 7 7 7 6 7 7 8 7 7 7 6 5 6 6 6 5 5 5 5 5 6 6 5 4 4 4 5 5 5 6 5 5 5 3 3 3 4 4 4 6 6 6 6 6 6 7 6 6 6 5 5 4 4 4 4 5 7 7 7 7 7 7 6 6 7 7 8 8 9 9 9 9 9
8 8 9 7 9 9 10 10 9 8 7 8 7 6 5 7 7 7 7 7 7 7 5 4 5 4 6 4 5 5 4 5 5 6 5 4 4 3 4 4 5 4 5 5 5 3 3 2 2 3 4 5 6 6 6 6 6 6 7 6 6 5 4 4 5 5 5 5 6 7 6 6 7 6 6 6 6 6 6 7 7 8 8 8 9
10 10 9 8 10 7 7 10 9 9 7 7 8 5 5 5 6 7 7 7 7 6 5 4 4 4 5 5 6 5 5 5 5 6 5 4 3 4 4 4 4 4 4 5 5 4 3 3 3 3 3 5 5 6 6 6 5 4 5 6 6 5 5 5 5 5 5 4 4 6 7 7 7 6 6 7 8 7 7 8 8 8 8 8 8
9 9 7 6 8 6 5 8 7 9 8 8 7 6 6 6 7 6 5 6 7 6 6 5 5 5 5 6 5 6 5 5 5 4 5 4 4 5 4 3 3 3 4 5 5 4 4 3 3 4 4 5 5 6 6 6 6 4 4 5 5 5 5 5 5 5 5 5 5 6 7 6 3 5 2 7 8 7 8 8 8 8 9 9 9
8 8 7 7 7 7 8 8 7 8 8 8 6 6 5 6 7 6 5 7 7 6 6 7 6 6 6 7 7 7 6 5 5 5 4 4 4 5 5 4 3 3 4 4 3 4 4 4 4 4 4 5 5 5 6 6 6 6 5 6 6 6 5 5 5 5 5 5 5 6 7 4 4 3 3 6 6 7 7 7 7 7 8 9 8
8 8 7 6 7 9 9 8 9 8 7 7 5 6 7 7 6 6 6 6 6 6 6 7 7 7 7 7 6 6 6 6 6 5 5 5 4 5 4 5 4 4 4 4 4 4 4 4 3 3 3 4 4 4 4 5 5 5 5 6 6 5 5 5 5 5 4 5 5 5 6 6 7 8 9 10 10 7 4 3 6 7 8 9 8
5 7 8 7 7 8 9 9 9 8 8 8 8 7 6 6 7 7 7 6 7 7 7 6 6 5 5 6 5 7 6 6 5 6 6 5 5 6 6 5 5 4 4 5 5 4 3 3 2 3 4 4 5 5 4 4 4 4 4 6 5 5 5 5 5 4 4 5 5 6 6 6 6 9 10 9 8 6 5 5 1 3 6 8 8
4 5 7 8 7 5 4 4 6 8 8 7 6 6 7 6 6 6 7 7 6 6 6 6 6 6 6 7 6 7 6 6 6 6 6 6 6 6 6 6 5 4 4 5 5 5 4 4 5 6 4 5 5 6 6 5 4 4 5 6 5 5 5 5 5 4 4 4 4 6 6 5 5 5 7 10 8 7 7 5 3 6 3 4 8
3 4 5 5 6 5 4 3 4 5 6 5 6 6 5 6 6 7 7 7 6 6 6 6 7 6 6 5 7 7 7 7 7 6 7 6 6 6 6 5 5 5 4 6 6 5 5 5 5 7 6 5 6 6 6 6 6 6 6 6 5 5 5 5 4 4 4 4 4 6 5 5 3 4 4 4 7 7 7 5 5 3 7 5 1
2 1 1 2 3 3 2 1 3 3 3 3 4 5 7 6 6 6 6 8 7 7 7 7 6 6 7 6 7 7 6 6 7 7 6 6 6 6 5 5 6 5 5 5 5 6 5 5 5 6 7 7 7 7 5 6 6 6 6 6 5 5 4 4 5 4 4 4 5 5 5 4 4 3 1 2 2 5 7 4 5 5 6 7 7
1 1 1 3 2 2 2 2 3 3 3 3 2 3 4 5 5 6 6 7 8 7 7 5 7 6 6 6 7 6 8 8 8 8 6 7 7 2 4 6 6 7 6 5 6 6 6 5 5 5 5 8 7 8 6 6 6 6 6 6 6 5 5 5 4 4 4 5 5 5 4 4 3 2 1 2 1 1 4 5 4 4 4 7 8
2 3 3 3 3 3 3 3 3 2 2 3 4 4 4 4 3 5 6 7 7 8 7 6 7 7 7 7 6 7 7 6 7 7 6 6 6 7 7 6 6 6 6 5 5 5 5 6 6 6 5 6 6 7 7 6 6 6 5 6 6 5 5 4 4 4 5 5 6 5 4 3 2 2 1 1 1 1 0 2 1 1 2 1 7
3 4 3 3 3 3 3 3 3 2 3 3 3 3 3 2 3 3 4 4 4 4 4 5 6 8 8 8 7 7 7 6 7 6 6 7 8 7 5 7 7 7 6 6 6 6 7 6 7 8 6 5 7 7 7 7 6 6 6 7 6 6 5 6 4 4 4 5 5 5 4 3 2 2 1 1 0 1 0 1 1 1 3 4 1
6 6 5 4 3 3 3 4 3 3 3 3 3 4 4 5 5 4 4 2 2 3 3 4 5 7 8 7 6 7 6 7 8 8 8 7 8 8 9 9 7 6 5 6 7 6 8 9 8 9 8 6 5 6 7 7 6 7 6 5 5 5 5 5 5 4 4 4 5 5 4 3 2 2 1 1 1 0 0 1 0 0 1 5 4
7 8 7 5 5 4 3 3 3 3 3 3 3 4 4 5 5 6 6 3 4 5 4 3 5 6 7 6 2 2 4 5 5 6 7 8 8 8 8 6 7 7 7 5 7 8 8 8 8 7 9 8 6 7 8 8 8 6 6 5 4 2 2 6 6 4 5 4 4 4 3 2 2 3 2 2 2 2 1 1 1 1 2 2 5
8 7 5 5 4 3 5 4 4 3 3 3 4 5 5 6 5 4 4 3 4 5 3 4 2 5 8 5 3 5 4 5 6 5 6 9 8 7 6 8 8 7 6 5 6 7 6 5 7 8 6 8 5 7 10 10 7 7 6 5 3 3 2 0 5 5 6 3 3 4 3 3 4 3 3 3 3 3 3 2 2 2 2 2 3
7 6 5 4 3 2 4 6 6 6 5 4 3 5 5 5 4 3 3 3 4 5 4 4 5 5 10 8 6 5 7 8 7 6 8 9 9 8 8 10 11 7 5 5 5 6 6 6 8 8 8 4 5 2 7 9 6 8 7 6 4 4 1 3 3 4 4 3 2 4 5 5 6 5 4 4 3 2 2 2 2 3 3 3 3
8 7 5 4 3 3 2 4 6 7 7 7 7 7 7 6 6 6 5 6 4 4 3 3 3 5 9 9 7 5 9 7 6 8 10 11 8 8 9 9 8 6 8 6 7 7 7 6 5 5 8 8 5 7 9 7 4 9 7 5 5 5 4 6 4 3 2 5 6 5 4 4 6 6 5 5 4 3 3 3 3 3 3 4 4
8 7 7 6 3 2 1 2 2 5 6 8 8 8 7 7 6 6 6 6 5 4 3 6 8 9 9 8 9 8 8 7 7 8 9 9 8 8 8 8 4 6 6 5 6 7 9 7 7 8 8 7 7 5 8 7 7 5 4 6 4 4 5 6 8 4 4 4 5 5 6 6 6 7 5 5 4 3 3 4 3 4 4 5 4
8 8 9 8 8 8 7 5 0 3 4 5 6 7 7 8 8 8 8 7 8 8 8 8 6 8 10 10 10 9 9 7 7 8 7 7 8 7 10 9 7 7 5 5 5 5 7 9 11 8 7 4 6 3 5 6 7 4 2 2 1 1 6 7 8 4 4 4 5 6 7 8 6 7 6 5 5 4 3 4 4 5 4 4 4
9 8 7 6 4 4 3 3 5 5 3 5 6 6 6 7 9 8 8 8 8 8 8 7 7 7 7 8 10 10 10 8 8 9 9 10 9 7 8 8 7 6 4 5 7 7 7 6 5 5 8 7 8 9 8 6 4 5 3 2 1 1 3 9 7 7 6 4 6 6 6 7 7 7 7 6 6 5 4 3 4 4 5 4 4
11 9 7 7 8 6 3 2 1 1 2 4 4 4 4 5 6 7 7 7 6 4 6 7 7 9 8 7 7 8 8 8 7 8 8 5 9 8 9 8 8 8 8 7 9 8 6 6 8 8 6 7 9 7 7 8 8 9 8 6 4 2 6 6 6 9 8 8 6 3 5 6 5 5 6 6 6 6 5 4 5 5 5 4 4
13 12 10 10 9 8 7 5 3 2 1 1 2 2 3 4 6 6 7 7 6 5 5 6 8 9 9 9 8 9 9 9 9 8 7 7 6 7 7 7 8 9 7 7 7 8 8 9 11 10 11 10 9 7 7 8 10 7 8 8 5 4 6 4 5 3 6 8 7 8 6 4 5 6 6 6 6 5 5 5 4 4 4 4 4
10 12 12 12 11 11 11 10 8 5 3 3 3 4 3 4 5 6 7 7 6 6 7 8 8 8 10 9 8 8 8 7 7 6 7 8 6 6 7 9 9 7 7 8 7 7 8 10 11 12 11 10 8 9 10 8 9 7 8 7 7 5 5 4 5 5 3 6 7 10 9 8 8 7 7 6 6 6 6 5 5 5 5 4 4
11 12 12 12 11 12 12 12 10 8 7 7 6 5 5 6 7 9 10 9 9 8 7 8 8 9 10 9 8 8 7 7 5 5 7 11 11 10 8 8 7 7 8 8 7 7 7 9 9 10 11 10 6 7 5 7 6 6 8 9 9 9 8 9 8 8 6 6 6 8 8 9 8 9 8 6 5 6 6 5 5 5 5 5 4
Wind_Direction
149 139 136 133 138 137 131 126 123 121 121 120 122 125 128 129 128 128 128 127 124 121 121 122 123 124 125 125 125 128 125 125 127 120 112 113 112 111 109 108 102 95 101 101 101 104 105 102 101 105 104 102 102 100 96 93 92 94 92 90 91 89 88 88 91 95 92 84 88 88 86 82 86 78 80 81 79 76 72 75 80 76 74 77 76
151 140 138 138 138 138 133 128 125 124 124 125 124 124 127 127 128 127 126 124 121 122 123 124 125 125 125 124 127 130 123 121 124 125 124 113 112 112 110 106 103 99 98 103 105 102 99 100 101 98 97 96 94 95 95 94 94 93 94 95 94 90 88 86 88 85 83 93 95 92 97 98 87 92 84 80 78 75 73 67 63 74 74 73 72
142 138 136 137 139 139 133 129 128 127 126 127 128 128 129 129 125 123 121 121 123 124 126 127 126 127 127 127 129 127 121 123 123 124 124 115 115 114 112 110 106 101 100 101 103 102 101 99 100 100 98 95 92 91 92 93 94 91 92 90 90 91 94 92 81 85 96 101 103 107 96 84 79 78 79 77 75 74 73 69 68 72 74 72 72
141 138 136 135 139 140 136 133 130 129 128 128 130 131 129 128 127 127 125 124 123 126 127 125 126 128 128 129 129 129 127 125 124 123 119 117 115 115 113 111 108 104 102 103 104 102 100 100 99 98 95 93 93 92 92 94 94 92 91 91 90 90 89 92 97 94 93 88 90 98 91 89 81 76 76 76 76 76 76 76 73 73 75 74 73
141 137 135 139 142 141 138 135 132 131 130 131 132 132 132 131 130 129 128 126 127 128 127 126 127 129 130 130 131 131 128 127 127 125 122 122 121 119 117 116 112 105 104 103 102 101 101 100 100 97 98 97 95 91 91 91 90 89 89 89 88 87 83 81 79 78 77 73 80 90 87 89 78 71 74 77 78 78 79 79 76 73 75 76 80
139 137 137 141 144 143 141 137 134 132 133 134 135 135 134 133 132 131 129 129 128 127 127 128 128 130 131 131 133 133 129 129 128 123 120 123 122 118 116 115 114 112 109 106 104 102 101 98 96 99 94 93 96 93 94 97 96 94 92 90 87 84 81 77 74 75 76 79 78 85 85 80 81 78 78 81 83 78 79 80 81 81 82 83 81
138 139 141 142 144 146 143 137 134 134 134 136 136 135 134 134 131 131 130 130 129 129 127 128 129 130 131 133 135 132 132 132 128 127 129 125 123 122 124 121 117 115 112 110 107 105 101 94 92 94 94 95 96 101 102 102 99 95 92 90 88 86 83 80 78 75 81 86 81 82 83 83 83 83 81 86 90 90 86 81 81 80 74 72 75
140 142 143 144 147 145 143 139 137 136 136 135 135 135 133 133 132 131 130 130 130 128 128 130 130 130 131 131 132 134 133 129 128 126 124 123 124 119 120 124 119 119 117 109 109 106 100 93 92 94 92 92 95 101 108 106 102 99 98 94 89 85 83 82 82 75 81 85 85 84 86 88 85 87 88 91 85 84 82 80 83 88 83 79 82
145 146 147 147 146 146 143 141 139 138 135 135 135 133 132 133 133 132 131 131 129 130 131 132 132 132 134 134 134 133 129 126 124 121 118 115 111 111 116 117 123 120 110 107 106 106 100 96 93 89 91 94 99 106 114 109 105 103 99 94 88 86 86 86 89 98 93 89 89 92 92 94 93 90 89 92 91 87 92 94 91 85 77 80 80
148 148 149 150 149 147 144 142 140 138 136 136 135 133 134 132 132 133 133 132 134 136 135 134 134 135 136 136 136 138 135 130 124 121 117 110 104 105 108 116 122 121 114 111 109 106 103 97 93 93 96 98 100 110 115 111 107 106 103 98 94 92 92 88 90 85 90 90 88 86 81 87 96 96 102 97 96 91 74 68 75 80 83 83 82
148 150 153 150 148 145 144 142 140 140 138 137 136 136 135 136 136 135 135 136 138 138 136 134 136 134 136 136 138 135 135 135 133 128 119 113 115 116 117 121 116 116 118 115 114 109 105 100 98 100 103 104 107 113 116 112 110 108 105 100 99 97 95 100 102 88 87 94 97 97 94 101 91 98 104 103 97 85 86 90 90 88 88 88 87
150 152 152 149 142 144 142 142 141 140 139 138 138 138 138 137 136 136 140 139 140 140 136 135 138 139 139 140 135 128 124 124 120 121 120 117 117 116 118 121 123 124 122 120 116 113 109 105 105 107 111 110 111 114 116 115 109 107 105 103 102 102 95 94 95 96 94 91 95 99 95 92 93 95 105 103 97 95 94 93 91 89 86 83 83
154 154 154 147 148 143 143 144 143 142 141 140 140 141 140 139 140 140 139 138 139 140 136 135 138 140 139 142 131 129 129 126 123 119 117 119 117 121 127 127 129 128 126 122 119 116 112 111 112 113 115 114 113 115 114 112 109 108 106 105 104 103 99 105 102 98 97 95 95 95 97 98 99 106 103 100 94 92 91 88 86 84 83 81 80
156 157 156 149 145 145 147 149 146 144 142 141 142 142 141 140 142 139 135 135 135 139 138 138 141 141 144 144 128 134 135 130 127 126 122 121 122 123 129 132 133 132 129 125 123 117 115 117 119 120 120 118 115 115 113 111 110 110 108 107 106 104 106 102 101 100 100 99 94 89 91 90 91 91 94 98 96 97 92 86 88 88 86 81 78
156 154 153 149 149 148 150 148 143 139 139 139 140 140 140 141 140 138 139 136 136 137 140 141 143 146 150 140 132 137 136 135 134 126 123 126 126 128 131 136 137 136 132 128 122 118 119 121 123 124 123 122 120 117 115 113 114 113 111 107 105 109 117 112 105 99 99 101 102 101 101 102 95 98 95 98 99 99 97 94 90 89 87 84 82
149 147 148 150 152 146 153 144 137 136 140 141 141 139 140 141 141 140 139 138 137 139 139 141 145 146 146 137 138 143 143 142 132 125 125 125 126 129 130 134 137 137 132 127 122 121 123 127 130 130 128 126 122 119 117 117 115 114 111 108 106 103 103 106 106 107 106 104 102 99 99 98 94 101 103 99 97 97 96 94 95 95 93 88 86
146 146 147 150 151 151 149 150 142 140 138 139 140 141 143 145 144 142 141 139 138 140 144 144 147 147 145 143 144 150 144 141 131 127 125 123 124 127 130 131 134 134 130 126 124 125 127 131 134 132 131 128 123 120 118 118 117 115 113 112 109 103 101 107 107 104 102 103 103 102 100 104 108 104 102 101 97 95 96 96 91 88 89 87 84
150 151 150 153 155 153 152 153 149 151 146 144 145 147 148 147 145 144 143 141 140 143 149 148 146 144 145 148 156 157 151 139 130 126 125 124 124 125 128 130 133 131 128 125 125 127 129 127 131 134 133 129 123 119 118 119 119 117 117 114 111 107 104 111 104 102 103 104 94 89 97 99 101 101 100 101 102 101 98 95 99 98 94 96 93
148 151 152 153 158 155 155 153 158 154 152 153 154 148 144 146 146 147 145 142 143 147 150 151 149 150 152 156 164 162 156 140 135 130 129 130 123 123 125 130 131 130 125 125 126 125 124 125 128 133 133 128 122 120 121 121 120 120 119 118 116 114 116 115 107 109 109 103 102 103 99 105 120 110 106 106 106 100 103 104 97 96 93 90 95
148 153 155 159 160 160 155 158 158 156 155 156 156 156 148 149 150 148 147 148 148 148 149 151 153 155 160 165 169 170 159 144 139 138 137 129 128 126 125 125 129 127 123 123 124 125 124 123 125 131 131 125 124 123 123 123 124 124 125 122 118 126 124 109 112 111 108 105 106 106 116 118 108 108 107 102 96 101 100 99 96 95 98 101 98
155 166 161 165 166 162 160 158 161 158 159 158 160 159 153 158 153 151 153 152 153 154 155 157 161 165 168 169 170 167 158 147 149 145 141 134 122 125 128 127 125 129 124 120 123 122 120 122 125 125 125 122 122 124 124 123 124 127 124 120 127 129 116 117 117 114 113 117 114 110 116 117 112 111 109 102 102 102 108 104 103 104 100 96 93
166 167 166 161 162 166 164 162 161 162 160 162 161 162 160 165 157 161 162 160 162 164 163 165 170 169 173 172 169 160 161 156 154 146 147 135 135 133 133 130 131 131 123 120 120 120 121 123 126 128 126 126 129 128 125 121 123 123 124 130 135 120 124 121 118 114 114 109 109 110 108 106 113 104 97 106 109 102 105 105 104 103 104 99 99
169 170 167 162 163 167 164 169 166 165 163 164 165 164 166 164 163 162 164 168 171 173 167 168 170 172 173 174 156 161 159 155 155 150 143 131 131 134 133 137 135 135 129 126 124 119 119 124 130 132 131 136 137 133 134 132 125 125 129 137 123 128 126 125 120 119 114 108 108 121 117 115 114 118 121 118 113 110 108 103 102 102 101 104 104
174 173 171 172 168 165 173 174 172 170 168 168 167 166 164 164 165 167 170 173 169 170 169 169 171 171 172 173 164 157 151 153 148 140 142 142 133 135 139 141 135 134 135 133 124 111 113 113 122 128 139 150 137 137 135 133 132 143 143 138 129 129 134 132 128 119 116 118 111 119 116 121 110 116 120 121 123 117 105 103 104 102 102 105 102
176 173 172 171 172 165 171 176 174 175 172 169 168 168 166 167 168 169 171 173 166 168 170 171 171 173 174 169 172 159 156 155 155 159 174 152 148 149 153 155 151 140 143 146 147 137 148 142 138 152 151 150 148 136 135 132 134 144 144 135 132 134 132 130 123 124 119 116 113 127 129 117 126 119 103 109 112 109 112 110 106 107 107 99 99
172 178 173 172 175 171 174 178 179 178 176 172 169 164 164 168 169 169 171 172 171 173 170 167 171 172 172 172 173 162 152 158 163 165 169 162 155 155 159 156 157 147 153 160 158 160 149 150 152 150 150 153 147 137 130 135 142 145 143 138 138 141 138 135 127 120 119 121 124 130 113 116 114 112 118 122 118 121 119 117 115 114 105 105 111
180 180 175 177 174 176 176 179 181 176 175 169 163 168 169 167 171 168 169 170 173 171 168 166 168 164 165 160 164 163 160 162 166 169 168 171 164 161 157 157 158 157 155 167 168 175 165 148 144 144 150 150 144 136 135 135 145 146 144 145 143 141 139 135 130 123 120 118 123 140 127 132 120 112 115 113 120 124 120 119 120 121 119 120 117
180 179 179 178 175 179 179 184 180 174 171 172 168 172 171 173 173 167 172 164 176 177 167 166 154 163 168 159 164 172 161 166 162 171 173 176 174 176 162 165 161 159 159 167 170 174 162 135 117 124 148 146 143 142 144 146 148 153 146 144 143 139 139 131 127 122 122 125 129 120 108 97 108 120 133 130 128 128 130 127 128 121 121 123 116
186 189 182 182 178 178 161 183 179 177 177 171 177 174 166 174 180 177 175 175 180 185 165 159 160 165 171 163 177 164 170 171 171 180 180 182 165 191 193 181 170 164 164 166 172 174 174 155 145 147 142 144 145 147 151 148 144 150 146 144 145 136 138 136 131 133 127 124 126 125 142 140 146 160 131 126 131 139 140 140 139 139 135 128 120
194 192 187 180 182 168 183 179 175 185 181 180 183 175 172 178 192 183 178 176 187 182 178 178 178 180 182 172 177 174 174 175 171 174 185 179 169 190 204 200 182 174 180 170 170 179 176 165 157 151 149 150 149 148 151 148 149 142 160 146 140 143 142 143 142 138 133 133 127 131 159 170 164 351 206 133 132 142 150 150 146 142 134 129 126
189 193 196 185 181 174 176 191 183 182 181 183 169 167 172 192 196 187 195 193 190 187 190 191 187 188 181 182 183 180 174 174 177 179 187 181 181 187 203 209 201 190 200 171 155 167 180 180 166 155 155 152 146 147 154 148 151 160 161 149 144 146 150 149 148 144 143 141 139 143 146 121 69 73 54 121 135 134 143 151 154 146 137 137 139
191 188 196 190 181 187 187 194 194 197 185 185 178 169 188 193 195 203 207 203 191 199 201 200 198 198 188 184 184 178 175 181 183 181 190 192 188 196 197 212 208 200 201 186 160 160 185 186 170 147 134 129 125 134 130 136 147 160 157 146 147 153 153 155 155 154 150 145 147 151 147 136 92 76 80 79 89 93 97 127 149 150 149 148 148
192 190 185 181 187 181 195 205 205 196 194 193 188 188 191 179 191 205 207 209 204 203 204 207 209 207 196 190 184 186 183 186 186 188 190 194 197 199 203 206 213 202 197 190 160 160 170 182 176 149 123 108 118 117 127 131 145 156 151 152 156 160 158 163 158 159 155 152 154 152 153 156 139 99 89 93 95 95 105 108 345 141 154 158 155
195 180 182 192 184 186 197 197 197 204 200 194 185 176 194 198 205 208 209 205 204 201 210 212 213 210 210 205 190 198 196 193 190 190 192 199 203 202 200 206 211 205 192 194 191 177 171 183 180 177 137 136 136 142 147 150 160 160 164 162 164 162 163 163 165 161 158 157 150 159 155 159 159 151 129 102 87 85 82 85 159 131 226 157 167
210 181 190 193 184 187 191 181 169 171 171 176 190 202 199 209 214 217 210 203 199 200 206 216 221 214 214 210 206 198 196 198 200 191 198 202 206 205 200 203 199 204 198 199 201 187 175 181 184 183 163 151 143 152 156 161 165 169 169 170 167 165 167 167 170 168 161 151 161 158 162 165 164 159 147 144 101 77 72 58 80 137 138 169 174
268 231 116 143 188 216 210 173 154 151 164 164 181 199 215 213 219 221 218 212 208 211 210 210 219 218 219 218 214 207 205 207 202 200 200 201 205 205 202 194 196 200 204 195 198 192 178 180 176 175 169 168 158 149 154 162 170 167 168 172 168 166 169 176 183 177 158 164 169 166 169 168 174 146 118 101 73 78 56 68 67 88 154 171 186
357 75 98 109 131 168 172 138 130 142 174 211 212 218 217 222 219 220 220 221 220 218 216 212 216 221 224 225 214 208 212 214 212 205 195 201 208 169 188 189 195 203 200 201 202 199 181 170 172 177 165 164 167 155 154 158 161 165 167 168 172 165 184 189 185 171 162 170 169 174 176 176 142 125 123 46 81 171 91 36 36 70 122 171 188
32 43 95 125 115 147 148 120 120 148 173 192 213 230 236 234 228 227 224 223 225 230 225 216 218 224 228 226 217 212 215 205 212 200 199 206 205 190 202 189 195 196 190 195 204 191 178 179 168 178 170 163 168 168 162 157 153 157 165 165 167 185 177 176 181 171 182 170 171 178 177 169 177 164 116 83 354 6 296 123 123 137 59 29 192
43 68 48 80 125 124 113 112 120 167 205 204 177 207 229 231 235 229 225 234 250 244 242 234 229 225 227 221 211 213 198 187 211 198 209 208 204 194 178 211 202 198 187 184 197 197 193 185 171 170 172 172 169 168 161 157 154 159 161 166 176 176 167 187 188 194 178 190 176 171 181 183 173 160 105 75 26 310 301 325 218 201 117 28 101
33 27 46 53 71 104 110 112 115 151 161 191 206 217 215 213 217 215 223 180 266 260 226 238 240 234 230 221 210 214 204 189 213 206 206 204 205 198 197 211 211 193 184 178 178 178 196 187 180 168 161 154 154 149 152 154 150 146 144 141 153 169 171 178 190 195 174 199 196 181 186 170 163 148 125 123 143 115 62 95 91 141 174 100 55
43 33 10 30 50 73 109 104 124 150 154 175 205 215 225 221 219 216 215 156 207 234 231 227 244 256 247 230 196 266 228 217 220 209 206 208 206 205 198 212 204 183 189 189 178 175 182 178 166 164 165 159 156 161 156 156 144 130 121 116 115 124 171 186 183 178 195 189 197 195 179 175 151 158 153 157 150 146 130 128 134 158 170 154 134
31 43 29 10 8 56 97 110 129 150 175 200 209 227 232 232 233 224 221 181 196 223 247 263 284 271 258 240 152 227 256 242 229 205 218 223 215 197 169 211 208 190 169 158 164 155 150 132 158 140 147 148 156 178 161 151 151 162 153 133 113 85 55 50 169 181 204 179 197 202 180 198 174 161 165 164 163 160 132 128 141 135 146 140 125
39 32 20 360 339 11 155 148 155 155 166 180 229 246 246 239 240 262 252 255 238 237 226 213 174 222 268 255 224 197 218 221 211 201 217 225 229 212 185 200 212 181 151 158 162 154 148 162 178 155 146 144 122 200 185 190 168 171 165 152 158 138 139 204 180 186 195 198 178 206 198 196 182 170 168 176 175 143 122 126 135 132 123 122 116
48 44 34 20 2 10 97 177 168 168 168 179 192 208 213 217 212 203 189 222 225 212 179 134 233 177 237 258 259 240 236 225 193 210 213 222 214 212 212 207 199 172 189 178 175 167 160 172 182 181 147 146 156 185 198 210 197 157 164 204 173 188 161 195 169 126 211 201 208 207 199 190 178 172 178 185 166 141 136 141 142 128 117 106 108
52 43 41 42 29 10 347 81 207 211 194 181 193 196 200 203 185 175 183 170 169 149 177 198 192 196 206 229 233 221 244 226 210 192 214 206 205 210 214 212 190 196 178 177 184 185 189 172 188 177 171 154 160 170 196 188 202 191 157 157 157 204 205 149 154 151 168 172 201 187 204 199 180 182 188 181 164 146 142 144 131 123 124 117 112
52 45 43 37 32 24 13 360 188 203 237 220 207 208 201 186 182 190 191 194 188 159 209 216 209 208 211 210 212 213 204 203 185 191 227 222 211 199 212 213 199 179 168 163 166 164 186 179 183 179 152 159 163 148 191 196 201 187 292 327 32 210 184 154 166 160 176 179 170 189 202 197 189 190 192 175 175 151 151 147 144 131 130 124 119
22 32 41 42 46 48 36 22 15 349 279 236 233 222 221 217 215 220 228 224 213 200 213 210 213 217 229 215 222 210 199 192 178 184 200 221 222 210 210 205 195 181 154 179 168 186 195 183 149 135 161 157 175 169 189 176 193 204 212 249 334 326 192 154 188 139 159 162 171 182 196 198 199 197 194 185 169 162 155 160 152 144 136 140 124
19 24 28 20 19 19 11 19 62 74 43 33 11 4 317 289 268 262 251 249 239 231 199 210 221 225 220 224 232 231 210 196 200 194 194 179 228 219 218 204 201 196 189 189 197 201 191 188 181 180 185 182 186 176 176 176 184 197 191 200 206 235 199 188 189 179 177 168 170 183 191 186 194 199 207 191 181 171 161 177 171 158 156 143 142
18 17 18 18 17 12 6 346 330 329 338 164 183 188 189 216 244 242 237 251 253 237 215 209 220 224 227 216 213 227 223 207 200 194 174 165 206 225 221 209 205 201 192 204 203 199 199 198 196 184 196 203 197 186 176 191 197 195 185 200 199 198 188 189 190 215 170 169 178 178 175 180 200 196 202 198 190 176 176 178 170 165 153 149 150
8 14 16 14 12 11 10 4 8 351 312 274 262 243 217 178 177 199 220 241 239 229 214 214 222 228 232 220 221 222 228 216 199 177 163 162 167 230 228 212 207 199 199 203 192 193 208 209 206 198 196 201 201 195 200 197 204 207 192 189 190 176 178 183 189 180 173 188 174 193 183 172 183 183 184 190 188 185 191 175 177 179 163 163 159
6 11 16 14 9 8 3 1 4 360 353 345 326 293 255 229 227 223 229 231 231 226 219 226 232 238 240 232 221 216 217 219 196 182 180 183 174 197 210 212 209 207 203 201 183 200 217 207 203 197 199 194 195 203 198 217 200 212 203 200 201 191 188 191 187 186 183 175 176 179 181 187 188 166 183 175 182 188 190 180 183 177 173 172 163